Time,TemperatureF,DewpointF,PressureIn,WindDirection,WindDirectionDegrees,WindSpeedMPH,WindSpeedGustMPH,Humidity,HourlyPrecipIn,Conditions,Clouds,dailyrainin,SolarRadiationWatts/m^2,SoftwareType,DateUTC
2013-01-13 00:01:00,7.7,3.0,30.35,WNW,294,0.0,3.0,82,0.00,,,0.00,0,weatherlink.com 1.10,2013-01-13 06:01:00,
2013-01-13 00:16:00,7.5,3.0,30.35,NW,311,0.0,3.0,83,0.00,,,0.00,0,weatherlink.com 1.10,2013-01-13 06:16:00,
2013-01-13 00:31:00,6.7,3.0,30.35,NW,306,0.0,3.0,83,0.00,,,0.00,0,weatherlink.com 1.10,2013-01-13 06:31:00,
2013-01-13 00:46:00,6.5,2.0,30.35,NW,308,0.0,2.0,83,0.00,,,0.00,0,weatherlink.com 1.10,2013-01-13 06:46:00,
2013-01-13 01:01:00,6.1,2.0,30.35,NW,305,0.0,4.0,84,0.00,,,0.00,0,weatherlink.com 1.10,2013-01-13 07:01:00,
2013-01-13 01:16:00,6.4,3.0,30.36,WNW,288,0.0,5.0,84,0.00,,,0.00,0,weatherlink.com 1.10,2013-01-13 07:16:00,
2013-01-13 01:31:00,6.0,2.0,30.35,NW,308,1.0,6.0,84,0.00,,,0.00,0,weatherlink.com 1.10,2013-01-13 07:31:00,
2013-01-13 01:46:00,6.0,2.0,30.35,WNW,294,0.0,2.0,84,0.00,,,0.00,0,weatherlink.com 1.10,2013-01-13 07:46:00,
2013-01-13 02:01:00,5.9,2.0,30.36,WNW,298,0.0,3.0,85,0.00,,,0.00,0,weatherlink.com 1.10,2013-01-13 08:01:00,
2013-01-13 02:16:00,5.5,2.0,30.37,WNW,300,0.0,2.0,84,0.00,,,0.00,0,weatherlink.com 1.10,2013-01-13 08:16:00,
2013-01-13 02:31:00,5.4,2.0,30.36,NW,319,0.0,3.0,85,0.00,,,0.00,0,weatherlink.com 1.10,2013-01-13 08:31:00,
2013-01-13 02:46:00,4.9,1.0,30.36,WNW,285,0.0,2.0,84,0.00,,,0.00,0,weatherlink.com 1.10,2013-01-13 08:46:00,
2013-01-13 03:01:00,4.9,1.0,30.35,NW,321,0.0,1.0,85,0.00,,,0.00,0,weatherlink.com 1.10,2013-01-13 09:01:00,
2013-01-13 03:16:00,4.4,1.0,30.36,NNW,333,0.0,2.0,84,0.00,,,0.00,0,weatherlink.com 1.10,2013-01-13 09:16:00,
2013-01-13 03:31:00,4.7,1.0,30.35,NW,316,1.0,4.0,85,0.00,,,0.00,0,weatherlink.com 1.10,2013-01-13 09:31:00,
2013-01-13 03:46:00,5.2,2.0,30.35,WNW,302,1.0,3.0,85,0.00,,,0.00,0,weatherlink.com 1.10,2013-01-13 09:46:00,
2013-01-13 04:01:00,5.0,1.0,30.35,WNW,290,2.0,5.0,84,0.00,,,0.00,0,weatherlink.com 1.10,2013-01-13 10:01:00,
2013-01-13 04:16:00,5.2,2.0,30.36,West,280,1.0,3.0,85,0.00,,,0.00,0,weatherlink.com 1.10,2013-01-13 10:16:00,
2013-01-13 04:31:00,5.5,2.0,30.36,West,275,3.0,4.0,85,0.00,,,0.00,0,weatherlink.com 1.10,2013-01-13 10:31:00,
2013-01-13 04:46:00,5.0,1.0,30.36,West,276,0.0,2.0,84,0.00,,,0.00,0,weatherlink.com 1.10,2013-01-13 10:46:00,
2013-01-13 05:01:00,4.9,1.0,30.36,West,275,4.0,4.0,84,0.00,,,0.00,0,weatherlink.com 1.10,2013-01-13 11:01:00,
2013-01-13 05:16:00,4.5,1.0,30.36,West,280,1.0,4.0,84,0.00,,,0.00,0,weatherlink.com 1.10,2013-01-13 11:16:00,
2013-01-13 05:31:00,4.2,0.0,30.37,WNW,299,0.0,4.0,84,0.00,,,0.00,0,weatherlink.com 1.10,2013-01-13 11:31:00,
2013-01-13 05:46:00,4.3,1.0,30.37,WNW,288,0.0,4.0,84,0.00,,,0.00,0,weatherlink.com 1.10,2013-01-13 11:46:00,
2013-01-13 06:01:00,4.5,1.0,30.37,WNW,292,0.0,3.0,84,0.00,,,0.00,0,weatherlink.com 1.10,2013-01-13 12:01:00,
2013-01-13 06:16:00,4.5,1.0,30.38,WNW,293,0.0,3.0,84,0.00,,,0.00,0,weatherlink.com 1.10,2013-01-13 12:16:00,
2013-01-13 06:31:00,4.3,1.0,30.39,West,278,3.0,4.0,84,0.00,,,0.00,0,weatherlink.com 1.10,2013-01-13 12:31:00,
2013-01-13 06:47:00,4.5,1.0,30.39,WNW,283,1.0,7.0,84,0.00,,,0.00,0,weatherlink.com 1.10,2013-01-13 12:47:00,
2013-01-13 07:02:00,4.7,1.0,30.40,West,281,6.0,9.0,83,0.00,,,0.00,0,weatherlink.com 1.10,2013-01-13 13:02:00,
2013-01-13 07:17:00,4.6,0.0,30.40,West,278,4.0,7.0,82,0.00,,,0.00,0,weatherlink.com 1.10,2013-01-13 13:17:00,
2013-01-13 07:32:00,3.8,-1.0,30.41,WNW,300,0.0,4.0,82,0.00,,,0.00,0,weatherlink.com 1.10,2013-01-13 13:32:00,
2013-01-13 07:47:00,3.6,0.0,30.41,West,273,4.0,6.0,83,0.00,,,0.00,0,weatherlink.com 1.10,2013-01-13 13:47:00,
2013-01-13 08:02:00,4.2,0.0,30.42,West,271,0.0,6.0,83,0.00,,,0.00,0,weatherlink.com 1.10,2013-01-13 14:02:00,
2013-01-13 08:17:00,4.5,0.0,30.43,West,266,1.0,4.0,82,0.00,,,0.00,11,weatherlink.com 1.10,2013-01-13 14:17:00,
2013-01-13 08:32:00,4.6,0.0,30.43,WSW,256,3.0,5.0,82,0.00,,,0.00,32,weatherlink.com 1.10,2013-01-13 14:32:00,
2013-01-13 08:47:00,5.3,1.0,30.44,West,271,2.0,4.0,81,0.00,,,0.00,49,weatherlink.com 1.10,2013-01-13 14:47:00,
2013-01-13 09:02:00,6.2,2.0,30.45,West,265,5.0,9.0,81,0.00,,,0.00,98,weatherlink.com 1.10,2013-01-13 15:02:00,
2013-01-13 09:17:00,7.4,3.0,30.45,WNW,292,4.0,8.0,80,0.00,,,0.00,137,weatherlink.com 1.10,2013-01-13 15:17:00,
2013-01-13 09:32:00,8.3,3.0,30.46,WNW,289,3.0,8.0,79,0.00,,,0.00,174,weatherlink.com 1.10,2013-01-13 15:32:00,
2013-01-13 09:47:00,9.2,4.0,30.46,West,267,4.0,11.0,79,0.00,,,0.00,216,weatherlink.com 1.10,2013-01-13 15:47:00,
2013-01-13 10:02:00,10.7,5.0,30.46,West,269,7.0,9.0,78,0.00,,,0.00,250,weatherlink.com 1.10,2013-01-13 16:02:00,
2013-01-13 10:17:00,11.4,6.0,30.46,WNW,284,5.0,9.0,77,0.00,,,0.00,281,weatherlink.com 1.10,2013-01-13 16:17:00,
2013-01-13 10:33:00,12.2,6.0,30.46,WNW,288,4.0,11.0,77,0.00,,,0.00,323,weatherlink.com 1.10,2013-01-13 16:33:00,
2013-01-13 10:48:00,13.0,7.0,30.46,WNW,301,1.0,11.0,76,0.00,,,0.00,348,weatherlink.com 1.10,2013-01-13 16:48:00,
2013-01-13 11:03:00,13.9,8.0,30.46,West,259,4.0,8.0,76,0.00,,,0.00,388,weatherlink.com 1.10,2013-01-13 17:03:00,
2013-01-13 11:18:00,15.3,9.0,30.45,WNW,290,8.0,9.0,76,0.00,,,0.00,417,weatherlink.com 1.10,2013-01-13 17:18:00,
2013-01-13 11:33:00,15.5,8.0,30.45,NW,309,6.0,7.0,73,0.00,,,0.00,441,weatherlink.com 1.10,2013-01-13 17:33:00,
2013-01-13 11:48:00,15.5,8.0,30.44,West,279,1.0,9.0,72,0.00,,,0.00,462,weatherlink.com 1.10,2013-01-13 17:48:00,
2013-01-13 12:03:00,16.3,9.0,30.43,WNW,284,3.0,10.0,72,0.00,,,0.00,475,weatherlink.com 1.10,2013-01-13 18:03:00,
2013-01-13 12:18:00,17.0,9.0,30.43,WNW,302,5.0,9.0,72,0.00,,,0.00,487,weatherlink.com 1.10,2013-01-13 18:18:00,
2013-01-13 12:33:00,17.7,10.0,30.43,West,266,6.0,10.0,71,0.00,,,0.00,494,weatherlink.com 1.10,2013-01-13 18:33:00,
2013-01-13 12:48:00,19.0,11.0,30.42,WNW,290,3.0,11.0,71,0.00,,,0.00,538,weatherlink.com 1.10,2013-01-13 18:48:00,
2013-01-13 13:03:00,19.1,10.0,30.41,West,261,6.0,10.0,69,0.00,,,0.00,227,weatherlink.com 1.10,2013-01-13 19:03:00,
2013-01-13 13:18:00,18.9,10.0,30.41,WNW,294,2.0,8.0,67,0.00,,,0.00,146,weatherlink.com 1.10,2013-01-13 19:18:00,
2013-01-13 13:33:00,19.9,10.0,30.41,WNW,286,1.0,9.0,66,0.00,,,0.00,559,weatherlink.com 1.10,2013-01-13 19:33:00,
2013-01-13 13:48:00,20.5,10.0,30.40,WNW,285,5.0,11.0,63,0.00,,,0.00,69,weatherlink.com 1.10,2013-01-13 19:48:00,
2013-01-13 14:04:00,21.4,11.0,30.40,WNW,282,2.0,8.0,64,0.00,,,0.00,471,weatherlink.com 1.10,2013-01-13 20:04:00,
2013-01-13 14:19:00,21.2,10.0,30.40,WNW,282,6.0,11.0,63,0.00,,,0.00,461,weatherlink.com 1.10,2013-01-13 20:19:00,
2013-01-13 14:34:00,22.4,11.0,30.40,WNW,284,4.0,11.0,62,0.00,,,0.00,427,weatherlink.com 1.10,2013-01-13 20:34:00,
2013-01-13 14:49:00,22.2,10.0,30.40,WSW,245,5.0,12.0,60,0.00,,,0.00,408,weatherlink.com 1.10,2013-01-13 20:49:00,
2013-01-13 15:04:00,22.7,10.0,30.41,WNW,302,6.0,12.0,59,0.00,,,0.00,373,weatherlink.com 1.10,2013-01-13 21:04:00,
2013-01-13 15:19:00,23.2,10.0,30.41,West,271,5.0,12.0,58,0.00,,,0.00,348,weatherlink.com 1.10,2013-01-13 21:19:00,
2013-01-13 15:34:00,22.7,10.0,30.41,WNW,288,3.0,14.0,59,0.00,,,0.00,311,weatherlink.com 1.10,2013-01-13 21:34:00,
2013-01-13 15:51:00,22.7,10.0,30.41,WNW,282,9.0,11.0,59,0.00,,,0.00,274,weatherlink.com 1.10,2013-01-13 21:51:00,
2013-01-13 16:04:00,22.5,10.0,30.41,West,274,4.0,10.0,60,0.00,,,0.00,237,weatherlink.com 1.10,2013-01-13 22:04:00,
2013-01-13 16:19:00,22.2,10.0,30.42,West,277,5.0,10.0,59,0.00,,,0.00,186,weatherlink.com 1.10,2013-01-13 22:19:00,
2013-01-13 16:34:00,22.0,10.0,30.42,WNW,293,4.0,6.0,59,0.00,,,0.00,137,weatherlink.com 1.10,2013-01-13 22:34:00,
2013-01-13 16:49:00,21.8,10.0,30.43,NW,311,5.0,6.0,60,0.00,,,0.00,90,weatherlink.com 1.10,2013-01-13 22:49:00,
2013-01-13 17:04:00,20.9,9.0,30.43,NW,307,3.0,10.0,60,0.00,,,0.00,49,weatherlink.com 1.10,2013-01-13 23:04:00,
2013-01-13 17:20:00,20.1,9.0,30.43,NW,305,1.0,6.0,61,0.00,,,0.00,18,weatherlink.com 1.10,2013-01-13 23:20:00,
2013-01-13 17:35:00,18.8,8.0,30.43,NW,305,0.0,4.0,64,0.00,,,0.00,7,weatherlink.com 1.10,2013-01-13 23:35:00,
2013-01-13 17:50:00,17.0,8.0,30.43,WNW,302,0.0,2.0,68,0.00,,,0.00,0,weatherlink.com 1.10,2013-01-13 23:50:00,
2013-01-13 18:05:00,16.5,8.0,30.44,NW,304,0.0,0.0,69,0.00,,,0.00,0,weatherlink.com 1.10,2013-01-14 00:05:00,
2013-01-13 18:20:00,15.0,7.0,30.45,NW,305,0.0,1.0,71,0.00,,,0.00,0,weatherlink.com 1.10,2013-01-14 00:20:00,
2013-01-13 18:35:00,14.1,7.0,30.45,NW,306,0.0,2.0,72,0.00,,,0.00,0,weatherlink.com 1.10,2013-01-14 00:35:00,
2013-01-13 18:50:00,13.4,7.0,30.45,NW,306,0.0,2.0,75,0.00,,,0.00,0,weatherlink.com 1.10,2013-01-14 00:50:00,
2013-01-13 19:05:00,13.0,7.0,30.45,NW,306,0.0,0.0,75,0.00,,,0.00,0,weatherlink.com 1.10,2013-01-14 01:05:00,
2013-01-13 19:20:00,12.8,7.0,30.45,NW,306,0.0,1.0,76,0.00,,,0.00,0,weatherlink.com 1.10,2013-01-14 01:20:00,
2013-01-13 19:35:00,12.6,6.0,30.46,NW,306,1.0,1.0,76,0.00,,,0.00,0,weatherlink.com 1.10,2013-01-14 01:35:00,
2013-01-13 19:50:00,12.1,6.0,30.46,NW,306,1.0,2.0,77,0.00,,,0.00,0,weatherlink.com 1.10,2013-01-14 01:50:00,
2013-01-13 20:05:00,12.0,6.0,30.47,NW,306,0.0,2.0,78,0.00,,,0.00,0,weatherlink.com 1.10,2013-01-14 02:05:00,
2013-01-13 20:20:00,12.4,7.0,30.47,NW,306,0.0,2.0,77,0.00,,,0.00,0,weatherlink.com 1.10,2013-01-14 02:20:00,
2013-01-13 20:35:00,11.9,6.0,30.48,NW,306,0.0,3.0,77,0.00,,,0.00,0,weatherlink.com 1.10,2013-01-14 02:35:00,
2013-01-13 20:51:00,11.8,6.0,30.48,NW,307,0.0,1.0,78,0.00,,,0.00,0,weatherlink.com 1.10,2013-01-14 02:51:00,
2013-01-13 21:06:00,12.1,7.0,30.49,NW,307,0.0,0.0,79,0.00,,,0.00,0,weatherlink.com 1.10,2013-01-14 03:06:00,
2013-01-13 21:21:00,11.7,6.0,30.49,NW,307,0.0,1.0,78,0.00,,,0.00,0,weatherlink.com 1.10,2013-01-14 03:21:00,
2013-01-13 21:36:00,10.9,5.0,30.49,NW,307,0.0,2.0,78,0.00,,,0.00,0,weatherlink.com 1.10,2013-01-14 03:36:00,
2013-01-13 21:51:00,9.8,5.0,30.49,NW,308,0.0,1.0,79,0.00,,,0.00,0,weatherlink.com 1.10,2013-01-14 03:51:00,
2013-01-13 22:45:00,10.4,6.0,30.50,NW,309,0.0,0.0,81,0.00,,,0.00,0,weatherlink.com 1.10,2013-01-14 04:45:00,
2013-01-13 22:51:00,10.8,6.0,30.50,NW,309,0.0,0.0,80,0.00,,,0.00,0,weatherlink.com 1.10,2013-01-14 04:51:00,
2013-01-13 23:06:00,10.5,6.0,30.51,NW,309,0.0,1.0,80,0.00,,,0.00,0,weatherlink.com 1.10,2013-01-14 05:06:00,
2013-01-13 23:22:00,10.2,5.0,30.51,NW,309,0.0,1.0,80,0.00,,,0.00,0,weatherlink.com 1.10,2013-01-14 05:22:00,
2013-01-13 23:37:00,10.3,5.0,30.51,NW,309,0.0,0.0,80,0.00,,,0.00,0,weatherlink.com 1.10,2013-01-14 05:37:00,
2013-01-13 23:52:00,10.4,5.0,30.52,NW,309,0.0,0.0,79,0.00,,,0.00,0,weatherlink.com 1.10,2013-01-14 05:52:00,